Regional Weather Roundup
Issued by NWS Albany, NY

Home | Current Version | Previous Version | Text Only | Print | Product List | Glossary On
Versions: 1 2 3 4 5 6 7 8 9 10 11 12 13 14 15 16 17 18 19 20 21 22 23 24 25 26 27 28 29 30 31 32 33 34 35 36 37 38 39 40 41 42 43 44 45 46 47 48 49 50
000
ASUS41 KALY 170910
RWRALY

NEW YORK STATE HOURLY WEATHER ROUNDUP
NATIONAL WEATHER SERVICE ALBANY NY
500 AM EDT WED SEP 17 2014

NOTE: "FAIR" INDICATES FEW OR NO CLOUDS BELOW 12,000 FEET WITH NO
SIGNIFICANT WEATHER AND/OR NO OBSTRUCTIONS TO VISIBILITY.

NYZ032-033-038>043-046>054-057>066-NYZ062>081-171000-
EAST


CITY           SKY/WX    TMP DP  RH WIND       PRES   REMARKS
ALBANY         CLEAR     47  43  86 CALM      30.04S
GLENS FALLS    MOCLDY    40  38  93 CALM      30.03R
POUGHKEEPSIE   FOG       45  43  93 CALM      30.04R VSB 3/4
NEWBURGH       CLEAR     48  46  93 CALM      30.05S
MONTGOMERY     PTCLDY    42  41  96 CALM      30.04S FOG
WHITE PLAINS   CLEAR     49  47  93 NW7       30.02S
ISLIP          PTCLDY    52  50  93 CALM      30.01R
NEW YORK CITY  CLEAR     61  52  72 CALM      30.02S
CENTRAL PARK   CLEAR     58  48  69 CALM      30.06R
$$

NYZ005>009-017-018-044>046-055-056-171000-
CENTRAL


CITY           SKY/WX    TMP DP  RH WIND       PRES   REMARKS
FULTON         CLEAR     47  43  86 CALM      30.04R
SYRACUSE       CLEAR     50  45  83 S5        30.04R
ROME           CLOUDY    46  45  96 CALM      30.06R
ELMIRA         CLOUDY    47  46  97 S3        30.07S
BINGHAMTON     CLOUDY    46  45  96 SW5       30.05F
MONTICELLO     CLOUDY    37  36  93 CALM      30.06S VSB 1/2
$$

NYZ026>034-041>043-171000-
NORTH


CITY           SKY/WX    TMP DP  RH WIND       PRES   REMARKS
WATERTOWN      CLEAR     41  35  79 SE5       30.02S
FORT DRUM      NOT AVBL
MASSENA        CLEAR     44  43  96 SW6       29.99S
SARANAC LAKE   FOG       33  33 100 CALM      29.99R VSB 1/4
PLATTSBURGH    CLEAR     47  45  93 SW3       29.98S
$$

NYZ001>004-010>016-019>021-171000-
WEST


CITY           SKY/WX    TMP DP  RH WIND       PRES   REMARKS
NIAGARA FALLS  CLEAR     46  43  89 CALM      30.03F
BUFFALO        MOCLDY    49  46  90 SE5       30.04S
DUNKIRK        MOCLDY    53  48  83 S6        30.05S
JAMESTOWN      CLOUDY    45  43  93 S5        30.07S
WELLSVILLE     CLOUDY    45  42  89 CALM      30.08S
ROCHESTER      PTCLDY    46  44  93 SW6       30.05S
PENN YAN       CLOUDY    51  47  86 SW5       30.05F
$$

             KEY
       WCI = WIND CHILL INDEX
       VSB = VISIBILITY
       HX  = HEAT INDEX
$$



USA.gov is the U.S. government's official web portal to all federal, state and local government web resources and services.